Location: Zagreb
(45.8000°N, 16.0000°E)
Time: 17:32:03
(UTC+01:00)

Tiros 1 despin weight - Pass Details

Date: 30 January 2020
Orbit: 594 x 642 km, 48.2° (Epoch: 25 February)

Event Time Altitude Azimuth Distance (km) Brightness Sun altitude
Rises 08:39:24 0° 210° (SSW) 2,827 ? 10.7°
Reaches altitude 10° 08:41:56 10° 198° (SSW) 1,934 ? 11.0°
Maximum altitude 08:45:37 26° 142° (SE) 1,203 ? 11.5°
Drops below altitude 10° 08:49:21 10° 86° (E) 1,965 ? 12.0°
Sets 08:51:57 0° 73° (ENE) 2,882 ? 12.4°
